Flag for Uruguay Weather past 2 weeks in Rocha, Uruguay

Now
55 °F

Passing clouds.


Feels Like: 54 °F
Forecast: 50 / 73 °F
Wind: 6 mph from Northwest

Location: Capitan Corbeta

Current Time: Dec 23, 2014 at 2:45:23 AM

Latest Report: Dec 23, 2014 at 2:00 AM


Visibility: N/A

Pressure: 30.18 "Hg

Humidity: 67%

Dew point: 45 °F

Location of RochaLocation

Historic Weather in Rocha — Graph

°F

Rocha temperature yesterday

Maximum temperature yesterday: 70 °F (at 2:00 PM)
Minimum temperature yesterday: 55 °F (at 5:00 AM)
Average temperature yesterday: 63 °F

Past Weeks' High & Low Weather Summary

 TemperatureHumidityPressure
High91 °F (Dec 19, 3:00 PM)94% (Dec 8, 6:00 AM)30.18 "Hg (Dec 8, 6:00 AM)
Low54 °F (Dec 15, 7:00 AM)23% (Dec 19, 4:00 PM)29.53 "Hg (Dec 20, 4:00 PM)
Average69 °F68%29.86 "Hg
* Reported Dec 8 2:00 AM — Dec 23 2:00 AM, Rocha, Weather by CustomWeather, © 2014

Note: Actual official high and low records may vary slightly from our data, if they occured in-between our weather recording intervals... More about our weather records

Advertising

Rocha weather history for previous 24 hours

 ConditionsComfort  
Time TempWeatherWind HumidityBarometerVisibility
2:00 AM
Dec 23
55 °FPassing clouds.6 mph67%30.18 "HgN/A
1:00 AM61 °FPassing clouds.7 mph55%30.15 "HgN/A
12:00 AM59 °FPassing clouds.8 mph59%30.15 "HgN/A
11:00 PM
Dec 22
61 °FPassing clouds.9 mph63%30.15 "HgN/A
10:00 PM61 °FPassing clouds.9 mph55%30.12 "HgN/A
9:00 PM63 °FPassing clouds.10 mph56%30.09 "HgN/A
8:00 PM64 °FPassing clouds.10 mph46%30.07 "HgN/A
7:00 PM64 °FScattered clouds.15 mph94%30.07 "HgN/A
6:00 PM66 °FPassing clouds.18 mph43%30.04 "HgN/A
5:00 PM68 °FPassing clouds.17 mph43%30.04 "HgN/A
4:00 PM68 °FPassing clouds.18 mph43%30.04 "HgN/A
3:00 PM70 °FScattered clouds.14 mph46%30.04 "HgN/A
2:00 PM70 °FScattered clouds.14 mph46%30.01 "HgN/A
1:00 PM66 °FScattered clouds.7 mph46%30.01 "HgN/A
12:00 PM61 °FBroken clouds.12 mph52%30.04 "HgN/A
11:00 AM64 °FRain. Scattered clouds.16 mph52%30.01 "HgN/A
10:00 AM64 °FPassing clouds.6 mph52%29.98 "HgN/A
9:00 AM59 °FBroken clouds.3 mph68%29.98 "HgN/A
8:00 AM55 °FMore clouds than sun.8 mph77%29.95 "HgN/A
7:00 AM55 °FLight rain. More clouds than sun.10 mph77%29.92 "HgN/A
6:00 AM63 °FPassing clouds.13 mph59%29.89 "HgN/A
5:00 AM55 °FClear.6 mph82%29.86 "Hg10 mi
2:00 AM61 °FSmoke.3 mph59%29.80 "HgN/A
Weather by CustomWeather, © 2014

See weather overviewHow to use our weather pages